This demonstration page uses our WeatherBlox Daily Observations layout. Learn more.

Left ArrowRight Arrow

44.8408, -93.29828

Hourly Observations for April 19, 2022

Temp ( °F °C ) Dew Point ( °F °C ) Humidity (%) Winds ( mph kmh ) Pressure ( in mb ) Visibility ( mi km ) Precip ( " mm )
12:53 am 00:53 Mostly Clear 30 -1.1 19 -7.2 64 64 NW 9 15 30.31 1027 10 16 0.00 0.00
1:53 am 01:53 Clear 30 -1.1 20 -6.7 66 66 NNW 9 15 30.31 1027 10 16 0.00 0.00
2:53 am 02:53 Clear 28 -2.2 19 -7.2 69 69 NW 7 11 30.31 1027 10 16 0.00 0.00
3:53 am 03:53 Clear 28 -2.2 19 -7.2 69 69 NW 8 13 30.31 1026 10 16 0.00 0.00
4:53 am 04:53 Clear 27 -2.8 19 -7.2 72 72 NNW 7 11 30.31 1027 10 16 0.00 0.00
5:53 am 05:53 Clear 26 -3.3 19 -7.2 75 75 N 7 11 30.30 1026 10 16 0.00 0.00
6:53 am 06:53 Mostly Sunny 27 -2.8 20 -6.7 75 75 W 3 6 30.31 1026 10 16 0.00 0.00
7:53 am 07:53 Mostly Sunny 30 -1.1 21 -6.1 69 69 NNE 5 7 30.30 1026 10 16 0.00 0.00
8:53 am 08:53 Mostly Sunny 33 0.6 21 -6.1 61 61 ENE 3 6 30.29 1026 10 16 0.00 0.00
9:53 am 09:53 Mostly Cloudy 35 1.7 21 -6.1 57 57 VRB 3 6 30.30 1026 10 16 0.00 0.00
10:53 am 10:53 Mostly Cloudy 37 2.8 19 -7.2 48 48 Calm 30.28 1026 10 16 0.00 0.00
11:53 am 11:53 Mostly Cloudy 40 4.4 18 -7.8 41 41 VRB 7 11 30.24 1024 10 16 0.00 0.00
12:53 pm 12:53 Mostly Cloudy 42 5.6 19 -7.2 40 40 VRB 3 6 30.22 1024 10 16 0.00 0.00
1:53 pm 13:53 Mostly Cloudy 45 7.2 19 -7.2 35 35 SE 6 9 30.20 1023 10 16 0.00 0.00
2:53 pm 14:53 Mostly Cloudy 45 7.2 19 -7.2 35 35 SW 8 13 30.17 1022 10 16 0.00 0.00
3:53 pm 15:53 Mostly Cloudy 47 8.3 19 -7.2 33 33 S 12 19 30.14 1021 10 16 0.00 0.00
4:53 pm 16:53 Cloudy 46 7.8 19 -7.2 34 34 SSE 9 15 30.12 1020 10 16 0.00 0.00
5:53 pm 17:53 Cloudy 46 7.8 19 -7.2 34 34 S 10 17 30.10 1019 10 16 0.00 0.00
6:53 pm 18:53 Cloudy 45 7.2 20 -6.7 37 37 SE 9 15 30.08 1019 10 16 0.00 0.00
7:53 pm 19:53 Cloudy 45 7.2 21 -6.1 39 39 SE 10 17 30.06 1018 10 16 0.00 0.00
8:53 pm 20:53 Cloudy 44 6.7 22 -5.6 41 41 SE 9 15 30.07 1018 10 16 0.00 0.00
9:53 pm 21:53 Cloudy 44 6.7 20 -6.7 38 38 SSE 10 17 30.08 1019 10 16 0.00 0.00
10:53 pm 22:53 Cloudy 43 6.1 21 -6.1 42 42 SE 10 17 30.08 1019 10 16 0.00 0.00
11:53 pm 23:53 Cloudy 43 6.1 21 -6.1 42 42 SE 13 20 30.05 1018 10 16 0.00 0.00

Powered by AerisWeather